Terug naar catalogus

STARLINK-33722

ActiefCommunicatieVLEO
NORAD 63571·PAYLOAD·🇺🇸 United States

Gelanceerd Apr 14, 2025 vanaf Cape Canaveral Space Force Station

Loading…

Volgende Passages (komende 24 uur)

TLE

VersSource: CelesTrak SupGP

Epoch: Sep 15, 2026, 02:20 UTC

1 63571C 25076C   26258.09770833  .00036627  00000+0  13265-2 0  2582
2 63571  43.0031 331.9005 0001550 268.1066 295.8357 15.27564234    15

Volg STARLINK-33722 in realtime met AllMySat

Download on the App Store